NY5V Weather Reports


time (UTC)temp
F
wind
direction
speed
knots
gust
knots
rain 1hr
in
rain 24hr
in
rain mn
in
humidity
%
barometer
mb
20260502151652 66 55 0.0 0.9 0.00 0.00 0.00 72 1021.3
20260502150652 64 55 0.0 0.0 0.00 0.00 0.00 75 1021.4
20260502130642 53 60 0.0 0.0 0.00 0.00 0.00 99 1020.4
20260502123636 51 55 0.0 0.0 0.00 0.00 0.00 99 1020.0
20260502122635 51 53 0.0 0.0 0.00 0.00 0.00 99 1020.0
20260502121636 50 53 0.0 0.0 0.00 0.00 0.00 99 1020.0
20260502120635 50 53 0.0 0.0 0.00 0.00 0.00 99 1019.5
20260502115635 50 53 0.0 0.0 0.00 0.00 0.00 99 1019.5
20260502114633 50 53 0.0 0.0 0.00 0.00 0.00 99 1019.2
20260502113628 50 51 0.0 0.0 0.00 0.00 0.00 99 1019.2
20260502112624 50 53 0.0 0.0 0.00 0.00 0.00 99 1019.1
20260502111624 50 53 0.0 0.0 0.00 0.00 0.00 99 1018.7
20260502110619 50 53 0.0 0.0 0.00 0.00 0.00 99 1018.8
20260502105614 50 54 0.0 0.0 0.00 0.00 0.00 99 1018.7
20260502104614 50 55 0.0 0.0 0.00 0.00 0.00 99 1018.5
20260502103609 50 55 0.0 0.0 0.00 0.00 0.00 99 1018.5
20260502102609 51 55 0.0 0.0 0.00 0.00 0.00 98 1018.4
20260502101610 51 55 0.0 0.0 0.00 0.00 0.00 98 1018.5
20260502100606 51 55 0.0 0.0 0.00 0.00 0.00 98 1018.4
20260502090552 52 58 0.0 0.0 0.00 0.00 0.00 97 1017.9
20260502071533 54 58 0.0 0.0 0.00 0.00 0.00 94 1018.0
20260502070529 54 64 0.0 0.0 0.00 0.00 0.00 94 1018.4
20260502065525 54 64 0.0 0.0 0.00 0.00 0.00 94 1018.4
20260502064521 54 67 0.9 0.9 0.00 0.00 0.00 95 1018.2
20260502063521 54 63 0.0 0.0 0.00 0.00 0.00 95 1018.3
20260502062521 54 71 0.9 0.9 0.00 0.00 0.00 94 1018.2
20260502061517 55 66 0.0 0.9 0.00 0.00 0.00 94 1018.1
20260502060515 55 64 0.0 0.0 0.00 0.00 0.00 95 1018.0
20260502055516 55 63 0.0 0.0 0.00 0.00 0.00 95 1018.2
20260502054513 55 63 0.0 0.0 0.00 0.00 0.00 95 1018.1
20260502053512 55 67 0.0 0.0 0.00 0.00 0.00 95 1018.2
20260502052508 55 66 0.0 0.0 0.00 0.00 0.00 96 1018.1
20260502051504 55 61 0.0 0.0 0.00 0.00 0.00 95 1018.2
20260502050503 55 61 0.0 0.0 0.00 0.00 0.00 95 1017.9
20260502045503 55 65 0.0 0.0 0.00 0.18 0.18 95 1017.8
20260502044502 55 63 0.0 0.0 0.00 0.18 0.18 95 1017.9
20260502043456 55 64 0.0 0.0 0.00 0.18 0.18 95 1017.8
20260502042453 55 57 0.0 0.0 0.00 0.18 0.18 97 1017.9
20260502041448 55 53 0.0 0.0 0.00 0.18 0.18 97 1017.7
20260502040447 55 53 0.0 0.0 0.00 0.18 0.18 97 1017.8
20260502035445 55 53 0.0 0.0 0.00 0.18 0.18 96 1017.8
20260502034442 55 53 0.0 0.0 0.00 0.18 0.18 96 1017.6
20260502033443 55 53 0.0 0.0 0.00 0.18 0.18 96 1017.7
20260502032442 55 61 0.0 0.0 0.00 0.18 0.18 95 1017.7
20260502031437 56 64 0.0 0.0 0.00 0.18 0.18 95 1017.8
20260502030433 55 67 0.0 0.0 0.00 0.18 0.18 94 1017.8
20260502025433 55 58 0.0 0.0 0.00 0.18 0.18 94 1017.1
20260502024429 55 58 0.0 0.0 0.00 0.18 0.18 94 1016.8
20260502023424 55 58 0.0 0.0 0.00 0.18 0.18 93 1017.2
20260502022424 56 61 0.0 0.0 0.00 0.18 0.18 93 1016.9
20260502021418 56 64 0.0 0.0 0.00 0.18 0.18 93 1016.8
20260502020413 55 75 0.0 0.0 0.00 0.18 0.18 94 1016.9
20260502015413 55 66 0.0 0.0 0.00 0.18 0.18 96 1016.7
20260502014412 55 50 0.0 0.0 0.00 0.18 0.18 96 1017.2
20260502013409 56 41 0.0 0.0 0.00 0.18 0.18 96 1017.1
20260502012405 56 56 0.0 0.0 0.00 0.18 0.18 95 1016.9
20260502011403 56 59 0.0 0.0 0.00 0.18 0.18 94 1016.3
20260502010403 56 57 0.0 0.0 0.00 0.18 0.18 94 1016.8
20260502005404 56 56 0.0 0.0 0.00 0.18 0.18 93 1016.1
20260502004403 56 67 0.0 0.0 0.00 0.18 0.18 93 1015.6
20260502003357 56 57 0.0 0.0 0.00 0.18 0.18 91 1015.8
20260502002357 56 64 0.0 0.0 0.00 0.18 0.18 91 1015.8
20260502001358 56 64 0.0 0.0 0.00 0.18 0.18 90 1016.0
20260502000354 57 63 0.0 0.0 0.00 0.18 0.18 90 1015.6
20260501235351 57 60 0.0 0.0 0.00 0.18 0.18 89 1015.7
20260501234349 57 64 0.0 0.0 0.00 0.18 0.18 88 1015.7
20260501233344 57 62 0.0 0.0 0.00 0.18 0.18 86 1015.5
20260501232343 57 70 0.9 0.9 0.00 0.18 0.18 86 1015.4
20260501231338 57 62 0.0 0.0 0.00 0.18 0.18 84 1015.8
20260501230336 57 81 0.9 0.9 0.00 0.18 0.18 83 1014.8
20260501225336 58 73 0.9 0.9 0.00 0.18 0.18 84 1015.0
20260501224334 58 69 0.0 0.9 0.00 0.18 0.18 83 1015.3
20260501223332 58 67 0.0 0.9 0.00 0.18 0.18 81 1015.0
20260501222332 58 63 0.9 0.9 0.00 0.18 0.18 82 1014.8
20260501221331 58 89 0.9 1.7 0.00 0.18 0.18 81 1015.0
20260501220327 59 128 0.9 1.7 0.00 0.18 0.18 82 1014.6
20260501215325 58 93 0.9 1.7 0.00 0.18 0.18 84 1014.2
20260501214322 58 92 1.7 2.6 0.00 0.18 0.18 82 1013.7
20260501213321 58 155 3.5 3.5 0.00 0.18 0.18 81 1013.5
20260501212319 58 86 2.6 2.6 0.00 0.18 0.18 82 1013.8
20260501211319 58 109 1.7 2.6 0.00 0.18 0.18 83 1013.8
20260501210319 58 100 2.6 2.6 0.00 0.18 0.18 84 1014.0
20260501205319 58 78 0.9 0.9 0.00 0.18 0.18 84 1014.8
20260501204318 58 70 0.9 0.9 0.00 0.18 0.18 83 1015.0
20260501203317 58 73 0.9 0.9 0.00 0.18 0.18 83 1015.4
20260501202317 58 76 0.0 0.9 0.00 0.18 0.18 82 1016.0
20260501201316 58 120 1.7 2.6 0.00 0.18 0.18 84 1015.4
20260501200316 58 106 4.3 5.2 0.00 0.18 0.18 82 1014.6
20260501195315 59 123 2.6 2.6 0.00 0.18 0.18 83 1013.7
20260501194313 59 56 0.9 1.7 0.00 0.18 0.18 85 1013.5
20260501193308 58 110 1.7 2.6 0.00 0.18 0.18 86 1013.5
20260501192308 58 141 1.7 3.5 0.00 0.18 0.18 87 1013.3
20260501191302 57 191 1.7 2.6 0.00 0.18 0.18 90 1013.4
20260501190300 55 112 2.6 3.5 0.00 0.18 0.18 92 1014.1
20260501185258 55 75 0.9 0.9 0.00 0.18 0.18 96 1014.0
20260501184255 55 26 1.7 1.7 0.00 0.18 0.18 98 1014.3
20260501183255 54 111 1.7 2.6 0.00 0.18 0.18 99 1014.7
20260501182254 54 106 1.7 2.6 0.00 0.18 0.18 99 1015.1
20260501181253 54 76 1.7 1.7 0.00 0.18 0.18 99 1015.5
20260501180252 53 87 0.9 0.9 0.07 0.18 0.18 99 1015.8
20260501175247 53 64 0.0 0.9 0.00 0.17 0.17 99 1016.0
20260501174246 53 69 0.9 0.9 0.00 0.17 0.17 99 1016.1
20260501173247 53 72 0.9 0.9 0.00 0.17 0.17 99 1016.1
20260501172244 53 112 0.9 1.7 0.00 0.17 0.17 99 1016.1
20260501171243 53 64 0.0 0.9 0.00 0.17 0.17 99 1016.5
20260501170242 53 36 0.9 0.9 0.00 0.17 0.17 99 1017.0
20260501165237 53 63 0.0 0.9 0.00 0.17 0.17 99 1016.8
20260501164238 54 71 0.0 0.9 0.00 0.17 0.17 99 1016.7
20260501163236 53 47 0.9 0.9 0.00 0.17 0.17 99 1017.0
20260501162235 53 63 0.9 0.9 0.07 0.17 0.17 99 1016.7
20260501161235 53 62 0.0 0.9 0.00 0.16 0.16 99 1017.0
20260501160234 53 88 1.7 1.7 0.05 0.16 0.16 99 1017.0
20260501155234 53 66 0.9 0.9 0.07 0.15 0.15 99 1017.3
20260501154234 53 85 0.9 1.7 0.00 0.14 0.14 99 1017.5